Simultaneous Nadir Overpasses (SNOs) Predictions

Prediction of SNOs between NOAA-19 and METOP-C Satellite Orbit:

Table of predicted SNOs for the next 14.0 days since TLE Epoch: 10/12/2024
Index Date (NOAA-19) Time (NOAA-19) Lat,Lon (NOAA-19) SZA (NOAA-19 ) Date (METOP-C) Time (METOP-C) Lat,Lon (METOP-C) SZA (METOP-C ) Distance(km) Time Diff (sec)
1 10/23/2024 06:33:44 49.28, 54.32 64.10 10/23/2024 06:34:58 49.31, 54.25 64.06 6.12 74
2 10/23/2024 07:24:58 -48.47,-138.79 116.54 10/23/2024 07:25:57 -48.46,-138.80 116.62 1.92 59
3 10/23/2024 08:14:59 51.69, 29.97 66.05 10/23/2024 08:15:38 51.70, 30.00 66.01 2.51 39
4 10/23/2024 09:04:28 -56.84,-159.94 109.72 10/23/2024 09:04:52 -56.83,-159.95 109.75 1.32 24
5 10/23/2024 09:54:37 59.54, 9.12 72.56 10/23/2024 09:54:42 59.54, 9.13 72.56 0.90 5
6 10/23/2024 10:44:43 -62.55, 178.71 104.87 10/23/2024 10:44:32 -62.53, 178.70 104.88 1.72 11
7 10/23/2024 11:34:48 65.40, -11.32 77.62 10/23/2024 11:34:19 65.38, -11.37 77.62 2.69 29
8 10/23/2024 12:25:27 -66.55, 157.19 101.35 10/23/2024 12:24:41 -66.53, 157.16 101.35 2.70 46



Historial Predications of SNOs between NOAA-19 and METOP-C
